Weather History for Ortonville, MN

Change the Weather History Date:

Monday, October 8, 2012

  Actual Average (KAQP) Record (KAQP)
Temperature  
Mean Temperature 50 °F -  
Max Temperature 62 °F 60 °F 86 °F (2010)
Min Temperature 37 °F 37 °F 17 °F (2000)
Degree Days  
Heating Degree Days 16    
Moisture  
Dew Point 30 °F    
Average Humidity 46    
Maximum Humidity 62    
Minimum Humidity 36    
Precipitation  
Precipitation 0.00 in - - ()
Sea Level Pressure  
Sea Level Pressure 29.68 in    
Wind  
Wind Speed 7 mph (WSW)    
Max Wind Speed 22 mph    
Max Gust Speed 33 mph    
Visibility 10 miles    
Events      
Averages and records for this station are not official NWS values.
T = Trace of Precipitation, MM = Missing Value Source: NWS Daily Summary

Daily Weather History Graph

Daily Weather History Graph

Search for Another Location

Airport:

Trip Planner

Search our weather history database for the weather conditions in past years. The results will help you decide how hot, cold, wet, or windy it might be!

Date:

Astronomy

Oct. 08, 2012 Rise Set
Actual Time 7:33 AM CDT 6:52 PM CDT
Civil Twilight 7:03 AM CDT 7:21 PM CDT
Nautical Twilight 6:29 AM CDT 7:55 PM CDT
Astronomical Twilight 5:55 AM CDT 8:29 PM CDT
Moon No Moon Rise 2:59 PM CDT (10/8)
Length of Visible Light 12h 17m
Length of Day
11h 18m
Last Quarter, 46% of the Moon is Illuminated
Oct 8
Last Quarter
Oct 15
New
Oct 21
First Quarter
Oct 29
Full
Nov 6
Last Quarter

Hourly Weather History & Observations

Time (CDT) Temp. Windchill Dew Point Humidity Pressure Visibility Wind Dir Wind Speed Gust Speed Precip Events Conditions
12:04 AM 39.2 °F 35.9 °F 17.6 °F 42% 29.80 in 10.0 mi SSW 4.6 mph - N/A   Clear
12:24 AM 37.4 °F 33.8 °F 17.6 °F 45% 29.79 in 10.0 mi SSW 4.6 mph - N/A   Clear
12:43 AM 39.2 °F 37.0 °F 17.6 °F 42% 29.79 in 10.0 mi SW 3.5 mph - N/A   Clear
1:04 AM 37.4 °F 34.9 °F 17.6 °F 45% 29.79 in 10.0 mi SW 3.5 mph - N/A   Clear
1:24 AM 39.2 °F 35.0 °F 19.4 °F 45% 29.78 in 10.0 mi SW 5.8 mph - N/A   Clear
1:43 AM 39.2 °F 37.0 °F 19.4 °F 45% 29.78 in 10.0 mi SSW 3.5 mph - N/A   Clear
2:04 AM 39.2 °F 37.0 °F 19.4 °F 45% 29.77 in 10.0 mi SSW 3.5 mph - N/A   Scattered Clouds
2:24 AM 39.2 °F 37.0 °F 19.4 °F 45% 29.76 in 10.0 mi SSW 3.5 mph - N/A   Mostly Cloudy
2:44 AM 39.2 °F 35.0 °F 19.4 °F 45% 29.76 in 10.0 mi South 5.8 mph - N/A   Mostly Cloudy
3:04 AM 41.0 °F 38.0 °F 21.2 °F 45% 29.75 in 10.0 mi South 4.6 mph - N/A   Mostly Cloudy
3:23 AM 42.8 °F 40.1 °F 21.2 °F 42% 29.74 in 10.0 mi SSW 4.6 mph - N/A   Overcast
3:44 AM 42.8 °F 41.1 °F 21.2 °F 42% 29.73 in 10.0 mi SSW 3.5 mph - N/A   Overcast
4:04 AM 44.6 °F 43.1 °F 23.0 °F 43% 29.73 in 10.0 mi SW 3.5 mph - N/A   Overcast
4:23 AM 46.4 °F - 24.8 °F 43% 29.72 in 10.0 mi Calm Calm - N/A   Overcast
4:44 AM 44.6 °F 43.1 °F 24.8 °F 46% 29.72 in 10.0 mi South 3.5 mph - N/A   Overcast
5:04 AM 46.4 °F 45.2 °F 26.6 °F 46% 29.71 in 10.0 mi SSW 3.5 mph - N/A   Mostly Cloudy
5:24 AM 46.4 °F 45.2 °F 24.8 °F 43% 29.70 in 10.0 mi SSW 3.5 mph - N/A   Scattered Clouds
5:44 AM 46.4 °F 44.3 °F 24.8 °F 43% 29.69 in 10.0 mi South 4.6 mph - N/A   Scattered Clouds
6:04 AM 46.4 °F - 24.8 °F 43% 29.69 in 10.0 mi Calm Calm - N/A   Scattered Clouds
6:24 AM 44.6 °F 43.1 °F 24.8 °F 46% 29.68 in 10.0 mi South 3.5 mph - N/A   Scattered Clouds
6:44 AM 44.6 °F 43.1 °F 26.6 °F 49% 29.67 in 10.0 mi South 3.5 mph - N/A   Clear
7:04 AM 42.8 °F 41.1 °F 26.6 °F 53% 29.67 in 10.0 mi SSE 3.5 mph - N/A   Scattered Clouds
7:24 AM 44.6 °F 42.2 °F 26.6 °F 49% 29.66 in 10.0 mi South 4.6 mph - N/A   Mostly Cloudy
7:44 AM 44.6 °F 42.2 °F 28.4 °F 53% 29.66 in 10.0 mi South 4.6 mph - N/A   Overcast
8:04 AM 46.4 °F 43.5 °F 28.4 °F 50% 29.65 in 10.0 mi South 5.8 mph - N/A   Light Drizzle
8:23 AM 46.4 °F 42.4 °F 28.4 °F 50% 29.64 in 10.0 mi South 8.1 mph - N/A   Overcast
9:03 AM 46.4 °F 42.4 °F 28.4 °F 50% 29.63 in 10.0 mi South 8.1 mph - N/A   Overcast
9:18 AM 48.2 °F - 28.4 °F 46% 29.63 in 10.0 mi South 6.9 mph - N/A   Mostly Cloudy
9:22 AM 48.2 °F - 28.4 °F 46% 29.63 in 10.0 mi South 5.8 mph - N/A   Mostly Cloudy
10:01 AM 48.2 °F - 30.2 °F 50% 29.61 in 10.0 mi SSE 5.8 mph - N/A   Overcast
10:21 AM 51.8 °F - 30.2 °F 44% 29.59 in 10.0 mi SSE 8.1 mph - N/A   Mostly Cloudy
10:41 AM 53.6 °F - 28.4 °F 38% 29.58 in 10.0 mi South 6.9 mph - N/A   Mostly Cloudy
11:01 AM 53.6 °F - 30.2 °F 41% 29.58 in 10.0 mi SSW 8.1 mph - N/A   Scattered Clouds
11:21 AM 55.4 °F - 28.4 °F 36% 29.58 in 10.0 mi WSW 12.7 mph 18.4 mph N/A   Mostly Cloudy
12:02 PM 57.2 °F - 30.2 °F 36% 29.58 in 10.0 mi West 8.1 mph 19.6 mph N/A   Overcast
12:41 PM 59.0 °F - 33.8 °F 39% 29.57 in 10.0 mi West 16.1 mph 25.3 mph N/A   Overcast
1:00 PM 60.8 °F - 33.8 °F 36% 29.58 in 10.0 mi WNW 15.0 mph 20.7 mph N/A   Mostly Cloudy
1:01 PM 60.8 °F - 33.8 °F 36% 29.57 in 10.0 mi West 15.0 mph 20.7 mph N/A   Mostly Cloudy
1:23 PM 60.8 °F - 35.6 °F 39% 29.57 in 10.0 mi WNW 17.3 mph 25.3 mph N/A   Scattered Clouds
2:01 PM 62.6 °F - 37.4 °F 39% 29.58 in 10.0 mi WNW 16.1 mph 21.9 mph N/A   Scattered Clouds
2:38 PM 62.6 °F - 37.4 °F 39% 29.58 in 10.0 mi WNW 21.9 mph 33.4 mph N/A   Scattered Clouds
2:55 PM 62.6 °F - 37.4 °F 39% 29.59 in 10.0 mi WNW 21.9 mph 28.8 mph N/A   Scattered Clouds
3:13 PM 62.6 °F - 37.4 °F 39% 29.60 in 10.0 mi WNW 17.3 mph 26.5 mph N/A   Mostly Cloudy
3:57 PM 60.8 °F - 37.4 °F 42% 29.62 in 10.0 mi NW 17.3 mph 26.5 mph N/A   Mostly Cloudy
4:21 PM 59.0 °F - 37.4 °F 45% 29.63 in 10.0 mi WNW 19.6 mph 26.5 mph N/A   Overcast
4:35 PM 59.0 °F - 37.4 °F 45% 29.64 in 10.0 mi NW 18.4 mph 26.5 mph N/A   Mostly Cloudy
4:41 PM 59.0 °F - 35.6 °F 42% 29.64 in 10.0 mi NW 17.3 mph 26.5 mph N/A   Mostly Cloudy
4:53 PM 60.8 °F - 35.6 °F 39% 29.65 in 10.0 mi NW 20.7 mph 25.3 mph N/A   Mostly Cloudy
4:55 PM 60.8 °F - 35.6 °F 39% 29.65 in 10.0 mi NW 21.9 mph 26.5 mph N/A   Mostly Cloudy
5:14 PM 59.0 °F - 35.6 °F 42% 29.66 in 10.0 mi NW 19.6 mph 26.5 mph N/A   Mostly Cloudy
5:23 PM 57.2 °F - 35.6 °F 44% 29.66 in 10.0 mi NW 18.4 mph 28.8 mph N/A   Scattered Clouds
5:48 PM 57.2 °F - 35.6 °F 44% 29.68 in 10.0 mi NW 16.1 mph - N/A   Scattered Clouds
6:21 PM 55.4 °F - 33.8 °F 44% 29.69 in 10.0 mi WNW 13.8 mph 19.6 mph N/A   Clear
6:29 PM 55.4 °F - 35.6 °F 47% 29.69 in 10.0 mi WNW 11.5 mph 19.6 mph N/A   Scattered Clouds
6:36 PM 53.6 °F - 35.6 °F 51% 29.69 in 10.0 mi NW 9.2 mph - N/A   Clear
7:04 PM 53.6 °F - 35.6 °F 51% 29.70 in 10.0 mi WNW 6.9 mph - N/A   Clear
7:12 PM 51.8 °F - 35.6 °F 54% 29.70 in 10.0 mi WNW 5.8 mph - N/A   Clear
7:27 PM 51.8 °F - 35.6 °F 54% 29.71 in 10.0 mi WNW 5.8 mph - N/A   Clear
8:01 PM 50.0 °F - 35.6 °F 58% 29.71 in 10.0 mi WSW 1.2 mph - N/A   Clear
8:21 PM 50.0 °F - 33.8 °F 54% 29.71 in 10.0 mi SW 2.3 mph - N/A   Clear
8:41 PM 48.2 °F - 33.8 °F 58% 29.72 in 10.0 mi WSW 3.5 mph - N/A   Scattered Clouds
9:01 PM 48.2 °F - 33.8 °F 58% 29.72 in 10.0 mi WSW 3.5 mph - N/A   Mostly Cloudy
9:05 PM 48.2 °F - 33.8 °F 58% 29.72 in 10.0 mi WSW 3.5 mph - N/A   Mostly Cloudy
9:29 PM 48.2 °F - 33.8 °F 58% 29.72 in 10.0 mi Calm Calm - N/A   Mostly Cloudy
10:01 PM 48.2 °F - 33.8 °F 58% 29.73 in 10.0 mi West 3.5 mph - N/A   Mostly Cloudy
10:38 PM 48.2 °F - 35.6 °F 62% 29.74 in 10.0 mi West 3.5 mph - N/A   Scattered Clouds
10:47 PM 48.2 °F - 33.8 °F 58% 29.74 in 10.0 mi Calm Calm - N/A   Scattered Clouds
11:18 PM 46.4 °F 44.3 °F 33.8 °F 62% 29.74 in 10.0 mi West 4.6 mph - N/A   Clear
11:41 PM 46.4 °F 43.5 °F 33.8 °F 62% 29.73 in 10.0 mi West 5.8 mph - N/A   Clear